• In Hungary
  • List of Countries
  • For 7 days
  • Water Temperature
  • Satellite Maps
  • Weather Map
  • News
  • Weather Widgets
  • user-avatar
    Login

    Hourly Weather Kvashnino

    Today, 24 April, Tuesday

    Time Temperature Precipitation Wind Pressure Humidity
    00:00 +1°C° 0 mm 1 mps 740 mmHg 64%
    01:00 +1°C° 0 mm 1 mps 740 mmHg 64%
    02:00 +1°C° 0 mm 1 mps 740 mmHg 65%
    03:00 -1°C° 0 mm 2 mps 740 mmHg 65%
    04:00 -1°C° 0 mm 2 mps 740 mmHg 64%
    05:00 -1°C° 0 mm 2 mps 739 mmHg 64%
    06:00 +2°C° 0 mm 2 mps 739 mmHg 60%
    07:00 +4°C° 0 mm 2 mps 739 mmHg 57%
    08:00 +5°C° 0 mm 3 mps 738 mmHg 53%
    09:00 +7°C° 0 mm 3 mps 738 mmHg 53%
    10:00 +8°C° 0 mm 3 mps 737 mmHg 53%
    11:00 +10°C° 0 mm 3 mps 737 mmHg 53%
    12:00 +10°C° 0.2 mm 3 mps 737 mmHg 56%
    13:00 +11°C° 0.2 mm 3 mps 736 mmHg 59%
    14:00 +11°C° 0.2 mm 3 mps 736 mmHg 61%
    15:00 +10°C° 0.4 mm 3 mps 735 mmHg 69%
    16:00 +9°C° 0.4 mm 3 mps 735 mmHg 77%
    17:00 +8°C° 0.4 mm 2 mps 735 mmHg 85%
    18:00 +8°C° 0.1 mm 2 mps 734 mmHg 88%
    19:00 +7°C° 0.1 mm 2 mps 734 mmHg 91%
    20:00 +7°C° 0.1 mm 2 mps 734 mmHg 94%
    21:00 +6°C° 0.1 mm 2 mps 734 mmHg 95%
    22:00 +6°C° 0.1 mm 2 mps 734 mmHg 96%
    23:00 +6°C° 0.1 mm 2 mps 733 mmHg 97%

    Tomorrow, 25 April, Wednesday

    Time Temperature Precipitation Wind Pressure Humidity
    00:00 +6°C° 0.2 mm 2 mps 733 mmHg 97%
    01:00 +6°C° 0.2 mm 2 mps 733 mmHg 97%
    02:00 +6°C° 0.2 mm 2 mps 733 mmHg 97%
    03:00 +6°C° 0.1 mm 2 mps 733 mmHg 97%
    04:00 +6°C° 0.1 mm 2 mps 733 mmHg 97%
    05:00 +5°C° 0.1 mm 3 mps 733 mmHg 96%
    06:00 +5°C° 0.2 mm 3 mps 732 mmHg 93%
    07:00 +5°C° 0.2 mm 3 mps 732 mmHg 90%
    08:00 +6°C° 0.2 mm 4 mps 732 mmHg 88%
    09:00 +7°C° 0.2 mm 4 mps 732 mmHg 83%
    10:00 +7°C° 0.2 mm 4 mps 732 mmHg 79%
    11:00 +8°C° 0.2 mm 5 mps 732 mmHg 74%
    12:00 +8°C° 0.4 mm 5 mps 732 mmHg 72%
    13:00 +9°C° 0.4 mm 5 mps 732 mmHg 69%
    14:00 +9°C° 0.4 mm 5 mps 732 mmHg 67%
    15:00 +9°C° 0.2 mm 5 mps 732 mmHg 67%
    16:00 +9°C° 0.2 mm 5 mps 732 mmHg 66%
    17:00 +9°C° 0.2 mm 5 mps 732 mmHg 66%
    18:00 +8°C° 0.1 mm 4 mps 732 mmHg 72%
    19:00 +7°C° 0.1 mm 3 mps 733 mmHg 79%
    20:00 +6°C° 0.1 mm 2 mps 733 mmHg 85%
    21:00 +6°C° 0 mm 2 mps 733 mmHg 87%
    22:00 +5°C° 0 mm 2 mps 732 mmHg 88%
    23:00 +5°C° 0 mm 2 mps 732 mmHg 90%

    Day after tomorrow, 26 April, Thursday

    Time Temperature Precipitation Wind Pressure Humidity
    00:00 +5°C° 0 mm 2 mps 732 mmHg 90%
    01:00 +4°C° 0 mm 2 mps 732 mmHg 91%
    02:00 +4°C° 0 mm 2 mps 732 mmHg 91%
    03:00 +5°C° 0 mm 1 mps 732 mmHg 92%
    04:00 +4°C° 0 mm 1 mps 731 mmHg 93%
    05:00 +4°C° 0 mm 1 mps 731 mmHg 93%
    06:00 +6°C° 0 mm 1 mps 731 mmHg 87%
    07:00 +6°C° 0 mm 2 mps 731 mmHg 80%
    08:00 +8°C° 0 mm 2 mps 731 mmHg 74%
    09:00 +9°C° 0.1 mm 2 mps 731 mmHg 68%
    10:00 +10°C° 0.1 mm 3 mps 731 mmHg 63%
    11:00 +11°C° 0.1 mm 3 mps 731 mmHg 57%
    12:00 +11°C° 0.2 mm 4 mps 732 mmHg 55%
    13:00 +12°C° 0.2 mm 4 mps 732 mmHg 53%
    14:00 +12°C° 0.2 mm 4 mps 732 mmHg 51%
    15:00 +12°C° 0.1 mm 4 mps 732 mmHg 52%
    16:00 +12°C° 0.1 mm 4 mps 732 mmHg 53%
    17:00 +11°C° 0.1 mm 4 mps 733 mmHg 54%
    18:00 +10°C° 0.1 mm 3 mps 733 mmHg 62%
    19:00 +8°C° 0.1 mm 3 mps 734 mmHg 69%
    20:00 +7°C° 0.1 mm 2 mps 734 mmHg 77%
    21:00 +6°C° 0 mm 2 mps 734 mmHg 80%
    22:00 +6°C° 0 mm 2 mps 734 mmHg 83%
    23:00 +5°C° 0 mm 2 mps 735 mmHg 86%

    27 April, Friday

    Time Temperature Precipitation Wind Pressure Humidity
    00:00 +5°C° 0 mm 2 mps 735 mmHg 87%
    01:00 +5°C° 0 mm 2 mps 735 mmHg 89%
    02:00 +5°C° 0 mm 2 mps 735 mmHg 91%
    03:00 +5°C° 0 mm 2 mps 736 mmHg 92%
    04:00 +5°C° 0 mm 2 mps 736 mmHg 94%
    05:00 +4°C° 0 mm 2 mps 736 mmHg 96%
    06:00 +5°C° 0 mm 2 mps 736 mmHg 91%
    07:00 +5°C° 0 mm 3 mps 736 mmHg 86%
    08:00 +7°C° 0 mm 3 mps 737 mmHg 80%
    09:00 +8°C° 0.2 mm 3 mps 737 mmHg 77%
    10:00 +7°C° 0.2 mm 4 mps 737 mmHg 73%
    11:00 +8°C° 0.2 mm 4 mps 737 mmHg 70%
    12:00 +8°C° 0.1 mm 4 mps 737 mmHg 67%
    13:00 +10°C° 0.1 mm 4 mps 738 mmHg 65%
    14:00 +10°C° 0.1 mm 4 mps 738 mmHg 62%
    15:00 +10°C° 0.1 mm 4 mps 738 mmHg 61%
    16:00 +10°C° 0.1 mm 3 mps 738 mmHg 60%
    17:00 +10°C° 0.1 mm 3 mps 738 mmHg 59%
    18:00 +9°C° 0.1 mm 3 mps 738 mmHg 67%
    19:00 +7°C° 0.1 mm 2 mps 738 mmHg 75%
    20:00 +6°C° 0.1 mm 2 mps 739 mmHg 83%
    21:00 +5°C° 0 mm 2 mps 739 mmHg 86%
    22:00 +5°C° 0 mm 2 mps 739 mmHg 89%
    23:00 +4°C° 0 mm 2 mps 740 mmHg 92%

    28 April, Saturday

    Time Temperature Precipitation Wind Pressure Humidity
    00:00 +4°C° 0 mm 2 mps 740 mmHg 93%
    01:00 +4°C° 0 mm 2 mps 740 mmHg 94%
    02:00 +3°C° 0 mm 3 mps 741 mmHg 95%
    03:00 +3°C° 0 mm 3 mps 741 mmHg 95%
    04:00 +2°C° 0 mm 3 mps 742 mmHg 95%
    05:00 +2°C° 0 mm 3 mps 742 mmHg 94%
    06:00 +3°C° 0 mm 3 mps 743 mmHg 88%
    07:00 +5°C° 0 mm 3 mps 743 mmHg 82%
    08:00 +7°C° 0 mm 3 mps 744 mmHg 75%
    09:00 +7°C° 0 mm 4 mps 744 mmHg 67%
    10:00 +10°C° 0 mm 4 mps 744 mmHg 60%
    11:00 +11°C° 0 mm 4 mps 744 mmHg 52%
    12:00 +12°C° 0 mm 4 mps 744 mmHg 49%
    13:00 +12°C° 0 mm 4 mps 744 mmHg 46%
    14:00 +13°C° 0 mm 4 mps 744 mmHg 42%
    15:00 +13°C° 0 mm 4 mps 744 mmHg 44%
    16:00 +13°C° 0 mm 3 mps 744 mmHg 46%
    17:00 +12°C° 0 mm 3 mps 744 mmHg 47%
    18:00 +12°C° 0.1 mm 2 mps 745 mmHg 54%
    19:00 +9°C° 0.1 mm 2 mps 745 mmHg 62%
    20:00 +9°C° 0.1 mm 1 mps 745 mmHg 69%
    21:00 +9°C° 0 mm 1 mps 745 mmHg 71%
    22:00 +8°C° 0 mm 1 mps 745 mmHg 73%
    23:00 +8°C° 0 mm 1 mps 745 mmHg 75%

    29 April, Sunday

    Time Temperature Precipitation Wind Pressure Humidity
    00:00 +8°C° 0.2 mm 1 mps 746 mmHg 79%
    01:00 +7°C° 0.2 mm 1 mps 746 mmHg 83%
    02:00 +7°C° 0.2 mm 1 mps 746 mmHg 86%
    03:00 +7°C° 0.1 mm 1 mps 746 mmHg 88%
    04:00 +7°C° 0.1 mm 1 mps 746 mmHg 89%
    05:00 +7°C° 0.1 mm 1 mps 746 mmHg 90%
    06:00 +8°C° 0 mm 1 mps 745 mmHg 84%
    07:00 +10°C° 0 mm 1 mps 745 mmHg 78%
    08:00 +11°C° 0 mm 1 mps 745 mmHg 73%
    09:00 +10°C° 0.3 mm 2 mps 745 mmHg 75%
    10:00 +10°C° 0.3 mm 2 mps 745 mmHg 76%
    11:00 +10°C° 0.3 mm 2 mps 744 mmHg 78%
    12:00 +10°C° 0.6 mm 2 mps 744 mmHg 81%
    13:00 +10°C° 0.6 mm 2 mps 744 mmHg 83%
    14:00 +9°C° 0.6 mm 2 mps 743 mmHg 86%
    15:00 +9°C° 0.7 mm 2 mps 743 mmHg 89%
    16:00 +9°C° 0.7 mm 2 mps 742 mmHg 91%
    17:00 +9°C° 0.7 mm 2 mps 742 mmHg 94%
    18:00 +10°C° 0.1 mm 1 mps 742 mmHg 95%
    19:00 +9°C° 0.1 mm 1 mps 742 mmHg 96%
    20:00 +9°C° 0.1 mm 1 mps 742 mmHg 97%
    21:00 +9°C° 0 mm 1 mps 742 mmHg 97%
    22:00 +9°C° 0 mm 1 mps 742 mmHg 98%
    23:00 +9°C° 0 mm 1 mps 742 mmHg 98%
    Show more